Location: Hopville
(44.8032°N, 123.1329°W)
Time: 17:30:24
(UTC+00:00)

Cosmos 1980 - Pass Details

Date: 24 January 2021
Orbit: 841 x 846 km, 71.0° (Epoch: 28 February)

Event Time Altitude Azimuth Distance (km) Brightness Sun altitude
Exits shadow 13:26:40 36° 217° (SW) 1,312 4.4 -23.5°
Maximum altitude 13:29:04 76° 296° (WNW) 870 3.5 -23.0°
Drops below altitude 10° 13:34:44 10° 23° (NNE) 2,467 6.3 -22.0°
Sets 13:37:12 0° 25° (NNE) 3,405 7.1 -21.6°
